Wetbulb
47.83 49.76 53.10 55.34 56.07 56.97 58.91 61.27 65.90 67.39 67.76 65.86 65.01 64.12 63.16 62.52 62.25 61.00 60.98 60.46 59.65 59.00 59.35 58.83 58.31 60.32 60.71 60.86 60.68 59.21 58.61 58.26 56.88 60.18 61.05 60.60 59.91 59.44 58.75 58.70 58.87 59.01 57.83
45.89 45.21 46.06 50.55 53.30 52.48 52.69 53.43 56.18 57.83 62.24 65.29 64.61 63.46 63.03 63.36 62.41 61.72 60.97 60.98 59.62 59.24 58.74 58.52 58.30 58.74 59.33 61.32 61.58 59.77 59.17 59.97 57.36 57.37 59.88 58.62 58.46 59.76 60.38 59.20 58.11 58.22 58.17
43.48 43.53 44.62 44.67 46.23 50.13 50.73 52.16 51.90 52.76 53.23 55.06 58.41 61.29 62.84 62.57 62.83 62.62 61.86 60.93 60.41 59.99 59.79 59.02 58.97 58.68 57.98 58.63 59.35 59.95 59.22 58.23 59.10 57.03 58.24 58.25 58.95 59.35 58.82 59.22 59.00 57.61 57.01
43.22 42.98 42.49 43.36 44.72 44.79 46.50 48.60 49.86 50.32 49.76 50.04 51.45 52.26 53.07 53.45 55.54 58.91 60.90 60.82 61.47 60.82 60.30 60.13 59.98 59.42 58.80 58.52 58.54 58.39 57.49 56.38 56.18 55.54 56.05 54.66 55.29 56.15 57.29 56.54 54.69 56.19 56.16
42.43 42.04 41.85 43.11 43.03 43.55 43.89 44.74 46.81 48.10 47.88 48.38 47.91 49.22 50.36 48.64 46.78 50.36 52.46 58.81 59.73 60.48 61.02 60.54 60.71 58.78 54.22 56.51 58.76 57.88 56.67 55.47 54.90 54.35 53.81 55.19 50.95 50.63 52.24 55.41 54.20 54.16 54.62
41.02 40.73 41.19 41.22 41.44 41.34 41.84 42.33 42.38 42.99 45.08 46.69 48.68 46.34 46.62 45.66 38.10 38.48 44.69 50.14 51.42 52.81 58.90 59.82 60.20 52.68 51.92 48.27 48.45 49.53 55.27 57.14 55.99 54.71 53.94 52.98 52.16 51.67 52.98 52.99 53.88 50.83 45.91
40.57 40.44 40.06 40.28 39.95 39.90 40.39 40.13 40.55 41.62 43.00 44.83 44.08 44.26 44.02 44.72 38.43 38.04 37.61 47.26 48.00 48.57 49.40 50.63 55.22 58.04 52.88 57.75 47.47 45.55 46.05 46.80 48.78 56.83 54.28 54.18 54.36 55.37 53.66 47.99 51.44 47.05 53.19
38.42 38.34 38.78 39.22 38.81 39.35 38.86 38.89 39.03 39.73 40.30 43.26 43.59 45.14 43.60 44.22 38.66 37.76 36.98 46.43 47.23 47.53 47.27 47.76 48.34 49.93 52.18 55.80 56.89 54.76 54.70 54.40 51.53 50.59 56.78 56.55 56.17 57.60 54.94 54.41 52.75 50.22 43.01
36.38 36.85 37.69 38.33 37.73 37.63 37.21 38.03 39.03 38.26 38.01 39.65 39.65 41.70 43.59 43.09 37.89 37.76 38.94 44.32 45.04 45.59 46.39 46.82 48.53 48.11 43.52 42.20 52.28 54.64 53.50 53.78 48.66 46.27 48.19 48.06 47.07 46.89 52.21 48.84 39.75 39.38 35.21
35.21 36.33 36.79 37.34 36.01 36.18 36.27 36.73 36.91 37.77 36.88 38.86 36.93 37.93 38.07 39.63 38.81 37.45 38.24 41.58 40.79 42.17 42.74 43.14 39.38 43.39 39.56 37.75 45.97 49.19 50.33 49.71 46.98 44.82 45.55 46.16 44.44 45.71 42.67 52.55 47.85 47.40 35.58
35.45 36.26 35.76 36.31 36.10 36.72 36.35 36.86 36.30 36.44 36.48 36.34 36.88 37.44 36.48 38.99 40.27 37.84 37.01 39.16 39.94 38.97 39.94 41.20 40.47 37.36 37.14 37.70 38.28 46.18 46.87 43.37 38.11 43.73 44.28 44.28 43.91 45.62 45.37 50.24 48.56 50.68 39.38
35.57 35.24 34.74 35.03 35.04 35.25 34.91 35.55 35.78 35.36 34.79 34.31 34.85 36.28 39.09 37.21 36.45 37.18 37.08 36.40 37.68 37.40 36.84 38.66 38.29 36.91 37.10 36.62 37.01 37.57 37.21 36.48 40.83 40.65 37.39 37.39 37.93 38.84 42.10 43.91 39.38 40.47 40.16
34.45 34.35 34.73 35.17 34.86 34.94 34.67 33.91 34.32 35.24 34.53 33.97 33.56 35.12 37.47 39.71 40.33 35.72 35.83 35.31 34.86 36.24 38.29 36.17 35.69 35.95 35.62 35.21 34.82 34.99 33.93 36.48 36.48 35.39 36.30 36.30 35.58 37.21 34.13 33.58 33.94 33.94 33.75
33.10 33.17 33.94 33.96 34.45 35.05 35.29 35.33 34.33 34.66 34.20 33.17 32.68 32.99 35.61 37.41 38.87 39.91 38.16 37.66 35.80 35.97 36.23 38.05 35.94 33.20 33.55 34.49 35.39 35.58 36.66 37.57 37.57 36.48 35.21 33.58 33.40 34.13 34.49 35.76 33.76 34.67 33.22
32.26 32.52 33.01 33.56 33.65 33.95 34.32 34.19 33.76 35.17 35.01 33.85 34.06 33.46 32.03 32.29 35.47 36.79 37.27 37.18 36.65 35.93 35.09 35.21 34.49 34.67 36.48 36.30 35.94 35.39 35.58 35.39 36.12 34.49 33.94 33.58 33.76 34.31 33.76 35.03 35.33 35.39 33.75
30.48 31.23 32.03 32.46 33.20 32.72 33.13 33.48 34.07 32.74 33.39 33.60 33.51 32.97 34.44 33.81 33.64 33.91 34.64 34.90 34.75 34.06 34.11 33.94 33.94 34.13 36.48 37.39 36.66 36.48 36.12 34.85 36.12 35.39 35.03 35.39 35.38 35.36 34.20 34.67 35.60 35.17 33.97
30.55 31.17 31.97 31.72 31.93 31.96 32.14 31.99 30.66 32.74 33.64 33.25 33.40 33.42 33.53 33.57 33.91 34.06 34.02 34.04 34.80 34.17 33.02 34.00 34.29 35.21 36.30 37.69 37.98 36.91 36.66 36.47 34.82 34.99 35.12 34.79 34.77 34.50 33.91 33.75 33.60 33.84 32.84
30.69 30.68 31.25 31.44 32.02 31.81 31.55 31.67 32.06 31.02 30.29 31.37 33.27 33.23 33.47 33.49 33.56 33.84 33.97 33.48 33.40 34.09 34.44 33.88 34.98 36.72 37.30 36.97 36.68 35.55 34.78 33.82 34.38 34.41 34.18 33.85 34.13 33.84 33.20 32.95 33.40 32.62 31.54
31.16 31.34 31.89 32.39 32.05 31.90 31.98 31.73 31.42 31.04 30.99 30.99 32.82 32.97 33.40 33.20 33.16 33.38 33.53 33.68 33.08 33.03 33.27 33.99 35.32 36.36 36.90 36.68 36.03 34.80 33.76 33.40 33.76 33.40 33.35 33.44 33.22 33.82 32.84 33.13 32.83 32.38 31.67
31.84 31.51 32.00 32.03 31.77 31.39 31.76 31.50 31.21 30.95 31.47 32.41 32.14 32.82 34.88 33.74 32.30 32.68 33.76 33.40 33.73 33.94 33.75 34.34 35.20 35.95 36.76 35.67 34.29 33.40 33.02 32.86 32.84 33.11 32.68 33.04 33.22 33.53 32.72 32.30 32.31 31.44 31.49
31.46 31.85 32.30 32.35 31.09 31.48 31.66 31.14 31.17 31.46 31.54 31.84 32.14 33.01 32.44 33.66 34.17 33.52 33.69 33.60 33.80 34.16 34.28 35.34 36.02 35.78 35.73 34.91 34.00 33.22 32.95 32.86 33.16 33.20 32.78 33.01 33.04 32.86 32.77 32.65 32.46 32.21 31.97
31.49 31.67 32.41 32.15 31.60 31.48 31.44 31.72 31.41 31.61 31.91 31.65 32.57 32.74 32.23 32.92 33.28 33.46 34.03 33.66 34.28 35.19 36.08 36.11 36.14 35.08 34.68 34.62 33.94 33.17 32.90 32.57 32.74 32.84 32.62 32.80 32.77 32.77 32.75 32.57 32.65 32.68 32.48
31.96 31.50 32.33 32.22 31.36 31.31 31.57 31.46 31.65 31.81 31.52 32.06 32.00 32.83 33.13 32.72 32.63 33.01 33.34 33.58 34.44 35.20 35.64 35.55 34.49 33.64 33.93 34.17 34.56 34.18 33.11 32.92 33.25 33.58 32.83 32.72 32.62 32.66 33.19 33.05 33.08 33.04 33.07
31.51 30.79 31.35 31.37 31.34 31.53 32.04 32.07 32.92 32.11 32.28 32.68 32.18 32.28 32.68 32.68 32.31 32.49 32.49 32.31 32.68 32.68 32.86 33.04 33.29 32.83 32.24 32.46 33.01 33.51 33.55 33.75 34.36 34.17 34.06 33.58 33.28 33.44 33.65 33.61 33.89 33.51 32.98
30.84 30.65 30.85 31.27 30.92 31.40 31.77 32.22 32.49 31.95 31.95 32.13 32.31 32.31 32.49 32.49 32.49 32.13 32.13 32.31 32.31 32.31 32.13 32.49 32.28 32.24 32.28 31.77 32.10 31.69 31.91 32.72 33.67 33.89 34.45 34.18 33.53 33.34 33.59 34.04 33.79 33.49 32.90
29.57 29.76 30.11 31.14 31.60 31.44 31.41 31.22 31.41 31.77 31.59 31.77 31.95 32.13 31.95 31.50 31.69 31.95 32.13 32.49 32.68 32.49 32.49 32.31 32.13 31.95 31.77 31.94 31.92 31.83 31.91 32.66 33.53 33.47 35.08 35.04 34.43 33.94 34.26 33.35 33.40 33.75 33.11
MSLP
1001.07 1000.35 999.93 1000.03 999.85 1000.22 1000.40 1000.79 1000.69 1001.19 1001.76 1002.70 1003.36 1004.46 1005.35 1006.10 1006.92 1007.80 1008.57 1009.20 1009.99 1010.73 1011.62 1012.35 1012.87 1013.50 1013.86 1014.31 1014.63 1015.09 1015.50 1015.68 1015.50 1015.30 1016.11 1017.09 1017.72 1018.15 1018.67 1019.54 1019.93 1020.19 1020.43
1002.89 1002.12 1002.14 1002.03 1001.63 1001.35 1001.93 1002.23 1002.00 1001.97 1001.92 1002.15 1002.76 1003.56 1004.51 1005.11 1005.75 1006.63 1007.49 1008.26 1008.82 1009.59 1010.43 1011.18 1012.03 1012.80 1013.24 1013.63 1014.01 1014.20 1014.37 1014.71 1015.04 1014.92 1015.79 1016.44 1016.76 1017.05 1017.44 1018.25 1018.74 1019.11 1019.41
1004.42 1004.30 1003.97 1004.00 1003.65 1003.56 1003.40 1003.75 1003.69 1003.27 1003.52 1003.60 1002.96 1003.24 1003.40 1004.25 1005.24 1005.78 1006.62 1006.99 1007.47 1008.22 1009.05 1009.98 1010.83 1011.48 1012.18 1012.88 1013.17 1013.45 1013.82 1014.24 1014.79 1015.08 1015.35 1016.21 1016.54 1016.86 1017.12 1017.66 1018.18 1018.63 1019.01
1005.90 1005.55 1005.92 1005.61 1005.91 1005.74 1005.24 1005.46 1004.87 1004.62 1004.89 1004.87 1004.47 1002.54 1004.46 1005.12 1005.09 1005.10 1005.73 1006.52 1006.97 1007.74 1007.93 1009.08 1009.52 1010.20 1011.11 1011.88 1012.43 1012.65 1013.33 1013.91 1014.33 1014.58 1014.97 1016.04 1016.36 1016.86 1017.20 1017.18 1017.75 1018.16 1018.04
1007.34 1007.39 1007.60 1007.68 1007.63 1007.50 1006.66 1006.72 1006.05 1005.65 1005.89 1006.12 1006.23 1007.48 1005.50 1006.76 1005.94 1004.69 1005.68 1005.61 1006.23 1006.71 1007.45 1008.25 1008.45 1008.94 1009.43 1009.69 1011.41 1011.68 1012.15 1013.20 1012.54 1013.41 1014.14 1015.22 1015.87 1016.09 1016.15 1016.33 1016.75 1017.15 1017.49
1008.82 1008.49 1008.84 1009.05 1009.21 1009.12 1007.83 1006.58 1007.12 1006.83 1006.65 1006.31 1006.82 1008.19 1006.93 1007.41 1008.09 1005.94 1006.44 1006.21 1006.95 1007.41 1007.16 1007.38 1007.76 1008.30 1008.78 1009.32 1009.76 1009.99 1011.16 1011.69 1011.97 1012.28 1012.98 1013.36 1014.48 1014.21 1014.33 1014.69 1015.86 1016.79 1017.50
1009.97 1010.62 1009.94 1009.93 1009.65 1010.58 1008.91 1009.04 1008.59 1007.99 1008.24 1008.47 1008.83 1007.58 1007.59 1009.37 1008.23 1007.67 1007.24 1007.08 1007.66 1008.07 1007.96 1007.59 1007.65 1007.77 1008.10 1008.74 1009.26 1009.66 1010.24 1010.37 1010.81 1011.15 1011.67 1011.96 1012.32 1012.53 1013.84 1014.61 1015.11 1015.62 1015.74
1010.74 1010.58 1010.55 1010.51 1010.75 1010.05 1009.72 1010.07 1009.30 1008.47 1008.87 1007.90 1007.46 1007.60 1008.52 1008.25 1008.36 1008.52 1008.22 1007.69 1008.04 1008.84 1008.20 1007.82 1007.79 1007.80 1007.86 1007.87 1008.31 1008.91 1009.25 1009.68 1009.98 1010.40 1010.61 1010.75 1011.33 1011.62 1012.56 1012.98 1013.76 1014.81 1015.86
1011.30 1011.60 1011.51 1011.46 1011.51 1011.61 1010.74 1011.44 1010.14 1010.22 1008.80 1008.24 1008.92 1008.44 1007.58 1007.56 1008.77 1008.31 1008.36 1008.07 1008.50 1008.54 1008.40 1008.15 1007.67 1007.77 1008.06 1008.31 1008.17 1008.21 1008.53 1008.72 1008.99 1009.38 1009.56 1009.83 1010.20 1010.64 1011.11 1012.71 1013.77 1014.92 1015.77
1012.22 1012.27 1012.17 1012.82 1011.91 1011.51 1011.26 1011.29 1010.49 1011.06 1009.88 1009.92 1009.20 1008.52 1008.10 1008.54 1007.71 1008.48 1008.97 1008.70 1008.88 1008.59 1008.28 1008.17 1008.27 1007.94 1007.96 1008.24 1008.45 1008.25 1008.29 1008.44 1008.75 1009.05 1009.47 1009.85 1010.20 1010.60 1010.80 1011.13 1012.44 1013.16 1014.41
1012.67 1012.24 1012.81 1012.04 1011.71 1011.44 1011.48 1011.06 1010.97 1010.83 1010.32 1010.10 1009.60 1008.71 1008.45 1008.54 1008.21 1008.53 1009.20 1009.26 1008.76 1008.68 1008.61 1008.24 1008.34 1008.33 1008.26 1008.50 1008.51 1008.21 1007.94 1008.00 1008.21 1008.32 1008.68 1009.11 1009.50 1010.01 1010.37 1010.49 1011.07 1011.35 1012.72
1012.95 1012.66 1012.45 1011.92 1011.91 1011.91 1011.07 1011.12 1011.32 1011.26 1010.99 1010.18 1009.13 1008.62 1008.18 1008.49 1008.56 1008.37 1008.24 1008.59 1008.28 1008.28 1008.28 1008.20 1008.41 1008.56 1008.37 1008.03 1007.98 1007.94 1008.03 1007.96 1008.11 1008.21 1008.45 1008.77 1009.29 1009.62 1009.80 1010.10 1010.42 1010.74 1010.92
1013.33 1012.68 1012.29 1012.12 1011.84 1011.40 1011.13 1010.84 1009.97 1010.25 1009.77 1009.21 1009.25 1008.73 1007.93 1007.84 1008.06 1008.23 1008.44 1008.18 1008.16 1007.79 1007.43 1007.62 1007.97 1008.12 1007.95 1007.92 1007.38 1007.65 1007.83 1008.27 1008.08 1008.08 1008.26 1008.62 1008.64 1008.30 1009.38 1010.22 1010.91 1011.32 1011.73
1013.15 1012.74 1012.36 1011.52 1010.86 1010.82 1010.42 1009.97 1009.86 1009.81 1009.36 1008.58 1008.45 1008.04 1007.63 1007.33 1007.37 1007.43 1007.67 1007.60 1007.60 1007.80 1007.27 1006.91 1007.28 1007.56 1007.73 1007.20 1007.22 1007.14 1007.51 1007.58 1007.36 1007.41 1007.75 1008.22 1008.90 1009.24 1008.67 1009.31 1010.70 1011.19 1011.99
1013.00 1012.51 1011.90 1011.40 1011.04 1010.41 1010.19 1010.12 1010.27 1009.49 1008.81 1008.48 1008.01 1007.85 1007.52 1007.09 1007.08 1007.21 1007.29 1007.57 1007.74 1007.49 1007.18 1006.97 1006.67 1006.65 1006.39 1006.65 1006.88 1006.83 1006.99 1007.24 1007.08 1006.93 1007.57 1008.29 1008.56 1008.49 1008.94 1008.58 1009.79 1010.55 1011.76
1012.97 1012.58 1012.05 1011.52 1010.90 1010.45 1009.94 1009.47 1008.84 1008.31 1008.05 1007.73 1007.40 1007.22 1006.65 1006.41 1006.30 1006.39 1006.85 1006.93 1006.94 1007.40 1007.27 1006.80 1006.27 1006.06 1005.65 1005.60 1005.40 1005.21 1006.17 1006.31 1006.88 1007.05 1007.13 1007.76 1007.97 1008.44 1008.55 1008.78 1009.42 1010.42 1011.22
1013.03 1012.29 1011.72 1011.24 1010.57 1009.92 1009.35 1008.55 1007.28 1007.16 1007.13 1006.65 1006.47 1006.09 1005.84 1005.63 1005.69 1005.33 1005.34 1005.68 1005.66 1006.26 1006.26 1006.14 1005.74 1005.50 1005.16 1005.10 1004.59 1005.09 1005.46 1006.07 1006.39 1006.57 1006.87 1006.96 1007.49 1007.99 1008.43 1008.18 1008.97 1010.13 1011.42
1013.18 1012.47 1011.79 1010.87 1009.91 1009.11 1008.38 1007.88 1007.52 1006.68 1005.70 1005.27 1005.11 1004.85 1004.50 1004.40 1004.25 1004.26 1004.45 1004.63 1004.83 1005.11 1004.89 1004.88 1004.77 1004.86 1004.81 1004.60 1004.56 1004.99 1005.42 1006.25 1005.52 1006.38 1006.37 1006.59 1006.99 1007.79 1007.26 1008.13 1008.99 1009.74 1010.68
1012.55 1011.85 1011.24 1010.28 1009.65 1008.93 1008.13 1007.56 1006.94 1006.00 1005.21 1004.61 1004.22 1003.68 1003.60 1003.43 1003.13 1003.27 1003.44 1003.49 1003.28 1003.31 1003.71 1003.85 1003.80 1003.98 1004.36 1004.18 1004.48 1004.70 1004.75 1004.55 1005.46 1005.81 1005.66 1006.22 1006.60 1007.34 1007.13 1008.52 1009.17 1010.14 1010.58
1011.81 1011.11 1010.65 1010.18 1009.38 1008.65 1007.83 1006.87 1005.76 1004.82 1004.09 1003.53 1003.08 1002.71 1002.48 1002.33 1002.39 1002.31 1002.18 1002.12 1002.03 1002.12 1002.19 1002.88 1003.12 1003.28 1003.38 1003.77 1003.87 1004.16 1003.95 1004.48 1004.69 1005.23 1005.70 1006.31 1006.51 1006.39 1006.66 1007.94 1009.70 1009.25 1010.55
1011.88 1011.17 1010.49 1009.67 1008.86 1007.97 1007.01 1006.07 1005.34 1004.67 1003.87 1002.98 1002.22 1001.71 1001.73 1001.84 1001.52 1001.21 1000.95 1001.01 1001.03 1001.17 1001.02 1001.78 1002.03 1002.59 1002.80 1002.81 1003.08 1003.51 1004.05 1004.12 1003.99 1004.27 1005.05 1005.91 1006.42 1006.58 1006.39 1007.91 1009.39 1009.92 1010.48
1011.58 1010.80 1009.99 1009.21 1008.45 1007.67 1006.87 1006.13 1005.31 1004.45 1003.56 1002.72 1001.91 1001.36 1001.06 1000.93 1000.67 1000.31 1000.25 1000.33 1000.47 1000.31 1000.26 1000.75 1001.17 1001.55 1001.90 1002.44 1002.21 1002.75 1002.98 1003.70 1003.95 1003.76 1004.70 1005.11 1006.01 1006.48 1006.95 1008.02 1009.49 1009.93 1011.06
1011.20 1010.53 1009.77 1009.05 1008.31 1007.47 1006.57 1005.77 1004.97 1004.19 1003.38 1002.62 1001.93 1001.24 1000.76 1000.33 999.83 999.47 999.46 999.60 999.71 999.76 999.70 1000.16 1000.60 1000.96 1001.24 1001.63 1001.83 1002.05 1001.86 1003.16 1003.39 1003.03 1004.84 1005.29 1005.41 1006.58 1007.49 1008.33 1009.45 1010.27 1011.35
1010.81 1010.27 1009.52 1008.60 1007.72 1006.84 1005.87 1004.95 1004.06 1003.18 1002.42 1001.76 1001.20 1000.60 1000.09 999.84 999.62 999.44 999.40 999.50 999.56 999.63 999.83 1000.02 1000.24 1000.59 1000.84 1001.12 1001.69 1001.82 1001.95 1002.66 1003.33 1004.00 1004.46 1004.74 1005.66 1006.75 1007.48 1008.48 1009.88 1010.29 1011.11
1010.64 1010.10 1009.38 1008.51 1007.55 1006.60 1005.70 1004.86 1004.01 1003.27 1002.59 1001.91 1001.15 1000.48 1000.00 999.69 999.50 999.42 999.37 999.36 999.25 999.28 999.52 999.78 1000.05 1000.32 1000.50 1001.05 1001.49 1001.69 1002.27 1003.04 1003.55 1003.97 1004.47 1005.21 1005.84 1006.70 1007.71 1008.75 1009.68 1010.60 1011.46
1010.72 1010.12 1009.45 1008.68 1007.84 1007.00 1006.21 1005.31 1004.37 1003.52 1002.81 1002.17 1001.56 1001.04 1000.65 1000.33 1000.10 999.97 999.89 999.85 999.92 1000.05 1000.14 1000.30 1000.43 1000.63 1001.02 1001.40 1001.67 1001.85 1002.72 1003.56 1004.08 1004.45 1004.80 1005.52 1006.29 1007.22 1008.04 1009.01 1010.03 1010.89 1011.44
Wind_Speed
19 17 17 13 12 12 7 3 10 15 16 16 18 16 17 18 17 16 16 16 17 17 17 17 19 18 13 12 11 11 12 12 14 10 9 11 13 14 13 14 14 16 14
18 20 20 17 16 16 15 12 10 8 2 15 17 17 17 18 18 19 19 16 18 18 18 17 18 12 16 13 12 16 14 14 13 16 9 9 13 15 14 14 13 13 15
19 19 19 19 19 15 16 13 14 13 12 11 5 10 15 13 17 19 17 16 18 19 17 17 17 17 16 13 12 13 12 10 10 10 8 5 8 7 11 11 12 12 11
17 18 17 17 15 14 15 11 12 13 14 14 15 14 10 6 3 8 15 16 15 15 15 15 16 15 17 16 14 14 10 9 7 8 9 3 4 4 7 10 7 8 11
17 17 16 15 14 12 13 9 12 13 10 10 8 7 9 6 4 4 4 9 14 12 14 16 17 19 21 18 11 12 12 12 10 10 10 10 4 4 10 6 8 7 10
13 15 15 14 13 12 13 13 11 12 11 10 10 5 6 7 7 14 5 5 4 1 13 13 12 15 17 21 22 17 18 16 15 11 11 12 13 9 8 10 8 6 4
11 12 11 11 11 10 11 11 10 8 6 7 2 4 6 2 9 10 8 6 3 1 2 3 2 8 14 16 18 21 19 21 21 15 16 17 16 14 9 6 9 6 9
12 11 11 11 11 10 10 10 11 9 6 5 5 6 1 1 7 6 8 4 2 3 2 2 1 2 2 11 14 15 17 15 16 11 14 15 14 11 13 14 15 9 2
12 12 11 11 11 9 9 8 8 9 9 9 6 7 7 4 2 7 8 5 3 4 3 2 3 2 3 7 6 10 12 14 11 17 18 13 13 15 14 7 5 5 2
12 11 10 8 8 9 7 9 7 8 7 7 7 7 6 9 6 5 5 3 4 4 4 5 6 6 5 4 4 6 8 8 8 5 7 9 8 9 17 15 10 10 4
11 11 10 11 11 11 10 9 8 8 8 8 8 6 6 8 9 9 8 6 4 3 5 4 3 8 7 6 6 5 6 4 6 7 7 5 5 7 8 11 12 11 6
13 12 11 10 9 9 10 8 7 8 6 6 7 7 5 6 10 11 12 14 7 5 7 4 5 7 10 8 5 8 10 5 2 4 3 4 5 5 7 8 4 2 3
12 13 11 10 8 7 8 9 8 8 8 7 6 8 8 5 6 10 14 16 14 8 7 6 8 9 9 7 7 9 6 4 4 4 5 4 3 5 6 5 6 8 8
13 12 11 11 11 10 7 7 8 9 9 9 9 9 8 8 6 5 6 7 10 11 11 7 4 4 6 3 1 2 4 5 6 4 3 2 2 3 4 4 3 5 4
14 13 12 10 11 11 8 7 8 10 10 10 10 9 11 11 8 5 6 5 6 8 6 4 4 5 4 4 4 3 3 4 4 3 4 4 3 5 2 5 5 5 4
13 11 10 9 9 10 9 10 10 14 18 20 23 16 12 18 22 20 15 12 11 10 7 9 8 8 6 6 5 3 3 4 4 4 5 5 6 6 6 4 6 4 6
14 14 11 11 9 9 10 10 12 8 16 19 21 23 24 23 23 22 20 16 14 9 8 11 10 9 7 7 5 5 4 4 3 4 5 6 6 7 8 8 7 7 7
12 15 10 10 10 11 12 11 10 12 11 10 11 17 20 23 24 23 22 16 11 12 9 11 11 10 8 7 7 7 6 5 5 6 6 6 7 7 8 9 8 9 10
9 7 9 9 10 11 11 11 11 11 10 13 10 9 12 22 23 22 21 13 12 11 10 12 11 10 9 7 7 7 7 7 7 6 6 7 8 9 8 8 8 11 12
10 13 11 9 10 10 10 11 12 13 13 12 10 9 9 8 8 9 10 10 10 10 9 9 8 8 8 7 6 6 6 8 9 7 7 7 7 8 10 10 9 11 10
9 9 12 9 9 10 10 10 10 11 11 11 10 9 11 10 9 8 8 9 10 9 8 9 8 8 7 7 8 7 7 7 8 9 8 8 7 8 10 9 9 8 10
9 9 9 9 9 10 10 10 10 10 11 10 9 9 14 9 9 8 8 9 9 9 8 8 7 8 8 8 9 9 9 9 8 9 8 9 8 9 9 9 9 9 9
9 10 9 9 10 13 11 10 10 10 10 10 8 8 7 8 8 7 6 6 6 7 6 7 7 6 6 7 7 8 10 9 9 10 10 9 10 9 9 10 10 10 10
9 9 10 11 10 11 9 10 9 10 10 8 7 6 5 4 4 4 3 3 3 4 5 5 6 8 7 7 6 6 7 8 8 10 13 11 11 11 10 10 10 11 11
9 8 9 10 11 10 11 10 10 9 8 7 7 5 3 2 2 2 2 1 3 4 4 5 5 9 10 11 10 10 11 12 10 11 9 12 13 14 11 10 11 10 11
9 9 9 9 9 9 9 9 9 9 9 7 6 6 5 4 4 3 3 4 4 5 6 5 7 11 12 10 12 15 13 13 11 12 10 11 11 10 10 11 13 9 11
Wind_Direction
39 38 42 40 55 52 58 81 216 195 190 185 182 182 183 182 181 186 190 183 190 190 196 202 210 211 218 212 207 215 220 221 235 234 217 201 202 207 212 212 221 217 214
40 42 42 36 42 56 48 40 39 46 275 185 180 181 184 184 180 185 191 190 192 194 193 197 210 206 215 216 214 213 214 212 221 230 196 196 207 205 210 206 211 217 222
37 39 41 38 34 32 47 38 40 45 33 9 118 181 180 185 195 197 200 193 189 192 190 197 204 202 205 211 211 215 220 218 225 242 231 209 214 202 208 211 218 221 227
34 35 34 34 23 31 37 29 44 50 44 38 11 40 38 53 90 194 198 194 187 192 188 198 203 200 207 209 216 214 206 202 205 224 239 184 191 195 209 209 210 219 225
39 38 27 23 22 14 33 24 37 41 47 51 38 51 40 24 35 76 60 191 189 210 201 205 205 204 196 192 200 200 192 197 208 197 224 235 180 171 197 192 216 203 224
32 35 29 28 22 6 12 20 32 33 27 38 33 342 72 28 318 51 21 79 62 360 230 224 213 201 193 192 198 198 199 207 215 201 218 218 215 208 215 199 201 197 239
36 21 28 26 17 2 15 11 4 27 46 16 327 31 32 284 19 31 24 83 76 293 265 87 241 218 204 208 212 213 210 205 212 204 205 208 220 209 198 170 204 205 232
32 20 16 14 0 2 18 1 353 13 353 348 12 7 319 333 7 14 3 43 47 255 248 111 179 315 273 214 211 219 224 220 218 211 218 218 222 208 194 200 204 211 23
24 13 18 8 357 358 13 341 7 336 345 352 333 312 333 350 16 8 358 4 333 318 323 262 244 230 273 352 250 220 223 226 219 215 220 226 202 194 194 147 152 131 224
7 4 2 349 358 351 360 336 358 322 330 314 308 323 321 288 341 344 317 319 306 309 312 315 307 281 271 264 239 234 227 217 201 210 221 238 219 205 183 194 179 201 146
351 353 344 350 348 349 336 338 334 324 320 308 297 293 291 282 287 271 265 245 246 277 283 290 274 273 278 264 235 234 232 194 212 203 207 207 200 192 196 205 188 199 170
343 343 338 340 336 326 329 327 318 313 288 290 307 298 271 247 244 265 267 261 241 245 256 249 249 253 257 251 244 238 250 244 235 195 156 188 186 187 200 204 182 172 137
338 337 332 326 312 304 306 305 316 311 310 305 293 292 292 281 261 243 255 257 264 265 262 261 278 265 266 266 240 241 225 216 204 168 198 212 208 153 116 103 83 86 67
332 329 323 325 330 321 308 305 301 297 295 298 295 294 294 290 280 258 257 279 265 258 263 264 256 256 248 249 250 209 223 218 193 194 179 130 135 170 133 122 144 136 91
328 325 325 324 319 314 303 292 276 272 274 282 280 280 284 282 278 264 241 236 249 264 281 277 261 246 237 213 204 203 189 188 190 155 147 171 164 150 159 140 133 132 118
324 319 316 309 310 311 303 295 258 253 263 261 262 262 267 261 267 266 263 245 247 239 244 242 238 242 229 237 242 186 187 193 205 174 158 170 172 174 152 132 129 127 137
319 314 311 303 299 299 299 296 303 282 261 260 254 255 256 259 261 263 254 254 239 231 230 242 240 231 225 230 221 213 210 201 166 176 176 164 159 151 153 135 130 123 123
302 300 296 297 300 304 307 300 293 294 297 290 260 247 254 255 256 256 257 242 239 230 230 236 239 239 225 216 207 205 190 183 171 176 166 157 153 162 147 142 144 143 134
303 297 298 301 297 297 299 296 291 289 284 288 281 257 241 246 252 249 243 237 232 228 224 231 234 238 234 205 201 197 184 172 174 174 154 159 155 154 136 135 135 142 136
308 303 302 302 300 298 297 295 300 300 298 294 287 280 280 260 237 238 237 229 230 228 218 222 222 224 220 206 188 189 171 166 162 158 156 158 155 147 138 137 149 139 138
307 301 300 302 305 302 304 303 299 294 290 289 287 280 267 258 255 248 227 228 222 218 206 216 214 216 208 194 177 174 182 172 165 151 149 149 146 141 130 131 133 130 129
305 304 305 309 306 305 307 298 289 289 290 289 286 273 260 248 245 235 229 216 213 209 204 207 208 198 191 193 179 172 166 164 159 144 142 136 136 129 125 126 132 127 133
307 309 310 311 313 311 313 309 304 298 295 297 293 281 266 260 257 246 232 215 206 203 192 193 191 183 175 173 178 171 157 164 159 136 142 138 128 128 131 129 132 132 144
315 317 315 319 321 320 320 316 316 317 319 308 306 298 271 252 216 211 197 179 175 159 168 167 172 168 150 138 144 142 132 133 143 143 137 131 127 131 129 126 141 136 135
328 326 323 323 329 330 327 329 331 334 328 326 326 327 327 344 13 30 38 81 101 113 120 131 138 138 127 128 128 113 117 129 133 133 127 130 129 129 131 132 134 135 140
332 332 330 329 332 337 334 333 341 346 347 347 353 5 14 31 40 54 69 90 98 96 100 104 113 112 114 115 118 114 117 123 124 120 123 125 125 125 125 127 133 135 137